sat.trackr.live / text

‹ back to catalog

FIREFLY-2

NORAD 62704 · 2025-009CZ

PAYLOAD ACTIVE UNKNOWN

§ Identity

Operator
Country
IND
Launch date
2025-01-14
Launch site
AFWTR
Launch vehicle
Mass (kg)
RCS (m²)

External: N2YO · Heavens-Above · Gunter

§ Orbital elements

Epoch: 2026-09-22T20:54:11.043360Z

Period
96.47 min
Inclination
97.6954°
Eccentricity
0.0008146
Mean motion
14.92712996 rev/d
Perigee alt
583.8 km
Apogee alt
595.2 km
Semi-major
6,967.6 km
B*
4.5128e-5
RAAN
341.6672°
Arg perigee
108.7073°
Mean anomaly
251.5031°
Rev number
9,189

§ Raw data

FIREFLY-21 62704U 25009CZ  26265.87096115  .00000410  00000+0  45128-4 0  99912 62704  97.6954 341.6672 0008146 108.7073 251.5031 14.92712996 91899

JSON: /api/v1/satellites/62704 · /tle

For live sub-satellite position, see the globe view (requires WebGL).

§ Visibility from observer

Set your observer location to see the next 7 days of passes ≥ 10°. The values pass through the URL so the page stays shareable.

No JS? Fill the form by hand. The geolocation button needs JavaScript.

§ Radio — SatNOGS DB

ModeDescriptionDownlinkUplink
FM Mode S - Transmitter 2.243 GHz
FM Mode X - Transmitter 8.100 GHz

2 transmitters · refreshed weekly from db.satnogs.org